Location: Oundoundou
(13.6667°N, 13.5500°W)
Time: 22:47:34
(UTC+00:00)

Daily predictions for brighter satellites

Satellite Brightness Start Highest point End
(mag) Time Altitude Azimuth Time Altitude Azimuth Time Altitude Azimuth
Cosmos 2219 3.7 19:12:30 10° SSW 19:18:12 69° WNW 19:23:54 10° N
Atlas Centaur 2 3.0 19:11:20 10° WSW 19:19:39 81° NNW 19:26:37 10° ENE
Cosmos 2227 Rocket 3.1 19:15:55 10° SSE 19:20:34 27° ESE 19:25:13 10° NE
Cosmos 1461 2.9 19:17:44 10° NNW 19:21:50 70° ENE 19:26:07 10° SSE
GPS 2-15 Rocket1 3.3 19:17:12 10° WSW 19:21:57 69° SSE 19:26:39 10° E
GPS 2-14 Rocket1 3.3 19:20:46 10° W 19:24:34 49° NNW 19:28:27 10° ENE
Cosmos 2360 Rocket 2.9 19:20:49 10° N 19:25:46 31° ENE 19:30:42 10° SE
DNEPR-1 R/B 3.6 19:22:48 10° NNW 19:27:04 74° ENE 19:31:56 10° SSE
Meteor 1-13 Rocket 4.5 19:23:08 10° N 19:28:32 47° E 19:34:04 10° SSE
Cosmos 1536 Rocket 3.6 19:25:52 10° N 19:30:21 86° E 19:34:49 10° S
H-2A R/B (2) 3.4 19:33:40 10° NW 19:35:24 13° NNW 19:36:51 10° N
Cosmos 1536 3.6 19:41:05 10° SSW 19:44:59 54° W 19:48:53 10° N
Cosmos 1455 Rocket 4.1 19:44:10 10° SE 19:47:40 23° E 19:51:08 10° NE
Cosmos 2327 Rocket 4.4 19:42:10 10° S 19:48:18 72° E 19:54:31 10° N
XTE 3.1 19:45:37 10° WSW 19:48:31 57° SSE 19:50:07 23° E
FREGAT/IRIS 2.7 19:45:42 10° SSE 19:48:41 52° ENE 19:51:41 10° N
NOAA 12 4.1 19:48:05 10° SSE 19:53:24 85° ENE 19:58:43 10° N
H-2A ROCKET BODY 2.7 19:36:18 10° WNW 19:53:41 89° SSW 19:56:56 16° ESE
Helios 1B rocket 3.0 19:50:00 10° NE 19:53:45 34° E 19:57:30 10° SSE
Tiangong 2 2.1 19:52:14 10° NNW 19:54:53 26° NE 19:55:22 25° ENE
FENGYUN 3A 3.9 19:54:33 10° SSE 19:59:39 44° ENE 20:04:46 10° N
Resurs 01 Rocket 2.3 19:56:12 10° SE 20:00:02 30° ENE 20:03:52 10° NNE
ASTRO E2 2.8 19:58:46 10° WNW 20:02:47 72° SSW 20:05:18 22° SE
SL-16 R/B 4.4 20:01:35 10° NW 20:06:18 28° WSW 20:11:02 10° SSW
Cosmos 1975 3.5 20:03:14 10° SSE 20:06:32 31° E 20:06:32 31° E
DELTA-4 R/B 4.1 19:52:08 10° W 20:07:09 55° SSW 20:09:54 20° SE
Cosmos 2074 Rocket 4.4 20:01:54 10° SSW 20:08:03 66° W 20:14:16 10° N
ATLAS 2A CENTAUR R/B 3.1 20:07:01 10° NNW 20:10:07 30° NNE 20:12:39 24° ENE
Resurs 1-3 4.2 20:10:45 33° E 20:10:56 33° ENE 20:14:53 10° NNE
H-II Stage 2 2.9 20:11:12 10° W 20:14:06 21° NNW 20:14:51 18° N
Meteor 2-13 Rocket 4.4 20:14:55 10° S 20:20:58 82° W 20:27:02 10° N
Spot 2 Rocket 3.5 20:17:14 10° SSE 20:22:09 56° ENE 20:27:05 10° N
Cosmos 2082 3.8 20:16:49 10° SSW 20:22:32 77° WNW 20:28:15 10° NNE
FengYun 1-2 T 4.1 20:17:34 10° SSE 20:23:02 79° ENE 20:28:30 10° N
Cosmos 1570 Rocket 3.8 20:18:28 10° N 20:23:40 74° ENE 20:28:55 10° SSE
Cosmos 1500 4.3 20:32:44 10° S 20:35:00 34° S 20:35:00 34° S
Cosmos 2341 Rocket 3.9 20:35:53 10° S 20:42:11 79° E 20:48:33 10° N
Cosmos 1025 Rocket 3.8 20:38:02 10° NNW 20:42:17 52° W 20:46:34 10° S
Centaur D-1A AC-35 2.7 20:31:06 10° WNW 20:43:10 67° NNE 20:43:44 61° NE
Cosmos 2154 Rocket 4.3 20:37:22 10° S 20:43:40 70° W 20:49:59 10° N
Cosmos 2297 Rocket 2.9 20:38:22 10° SSW 20:43:52 54° WNW 20:49:22 10° N
GOES 2 Rocket 4.0 20:40:19 10° W 20:44:56 41° SSW 20:45:28 39° SSW
ALOS 3.5 20:43:16 10° S 20:47:38 40° W 20:51:59 10° NNW
Cosmos 1354 Rocket 4.1 20:47:59 10° SSW 20:52:31 68° SSW 20:52:31 68° SSW
Cosmos 2333 4.2 20:53:26 10° NNW 20:58:50 79° NNW 20:58:50 79° NNW
COSMOS 2428 2.9 20:55:11 10° NNW 21:00:50 70° WSW 21:01:54 56° SSW
Cosmos 2285 Rocket 3.9 20:55:44 10° NNW 21:02:07 89° W 21:02:31 80° S
Cosmos 2227 Rocket 4.4 21:00:03 10° WSW 21:04:23 23° WNW 21:08:44 10° NNW
GPS 2-15 Rocket1 4.4 21:01:39 10° W 21:04:42 36° WNW 21:04:42 36° WNW
Atlas Centaur 2 3.8 21:03:10 10° W 21:09:29 29° NNW 21:10:26 28° N
Cosmos 2219 Rocket 4.2 21:04:06 10° N 21:05:19 17° N 21:05:19 17° N
Ariane H10 4.4 21:06:48 10° W 21:25:38 48° SSW 21:25:38 48° SSW
